This demonstration page uses our WeatherBlox Daily Observations layout. Learn more.

Hourly Observations for June 24, 2015

Temp ( °F °C ) Dew Point ( °F °C ) Humidity (%) Winds ( mph kmh ) Pressure ( in mb ) Visibility ( mi km ) Precip ( " mm )
12:15 am 00:15 Clear 64 18 59 15 83 83 E 9 15 30 1016 10 16.09344 0 0
12:35 am 00:35 Clear 64 18 59 15 83 83 E 9 15 29.97 1015 10 16.09344 0 0
12:55 am 00:55 Clear 63 17 59 15 88 88 E 8 13 29.97 1015 10 16.09344 0 0
1:15 am 01:15 Clear 63 17 59 15 88 88 E 7 11 29.97 1015 10 16.09344 0 0
1:35 am 01:35 Clear 63 17 59 15 88 88 E 9 15 29.94 1014 10 16.09344 0 0
1:55 am 01:55 Clear 63 17 59 15 88 88 ENE 7 11 29.97 1015 10 16.09344 0 0
2:15 am 02:15 Clear 63 17 59 15 88 88 E 5 7 29.97 1015 10 16.09344 0 0
2:35 am 02:35 Clear 63 17 59 15 88 88 ESE 6 9 29.94 1014 10 16.09344 0 0
2:55 am 02:55 Clear 63 17 59 15 88 88 E 3 6 29.94 1014 10 16.09344 0 0
3:15 am 03:15 Clear 63 17 59 15 88 88 NE 8 13 29.94 1014 10 16.09344 0 0
3:35 am 03:35 Clear 63 17 59 15 88 88 NE 7 11 29.94 1014 10 16.09344 0 0
3:55 am 03:55 Clear 61 16 59 15 94 94 E 6 9 29.94 1014 10 16.09344 0 0
4:15 am 04:15 Clear 61 16 59 15 94 94 ENE 13 20 29.88 1012 10 16.09344 0 0
4:35 am 04:35 Clear 63 17 59 15 88 88 SE 7 11 29.88 1012 10 16.09344 0 0
4:55 am 04:55 Clear 63 17 59 15 88 88 E 6 9 29.88 1012 10 16.09344 0 0
5:15 am 05:15 Clear 61 16 59 15 94 94 ESE 12 19 29.88 1012 10 16.09344 0 0
5:35 am 05:35 Clear 63 17 61 16 94 94 SE 5 7 29.88 1012 10 16.09344 0 0
5:55 am 05:55 Clear 63 17 61 16 94 94 SE 5 7 29.91 1013 10 16.09344 0 0
6:15 am 06:15 Sunny 63 17 61 16 94 94 Calm 29.91 1013 10 16.09344 0 0
6:35 am 06:35 Sunny 63 17 59 15 88 88 Calm 29.91 1013 10 16.09344 0 0
6:55 am 06:55 Sunny 61 16 59 15 94 94 N 5 7 29.91 1013 7 11.265408 0 0
7:15 am 07:15 Sunny with Mist and Fog 61 16 59 15 94 94 Calm 29.91 1013 5 8.04672 0 0
7:35 am 07:35 Sunny 63 17 61 16 94 94 NNE 6 9 29.91 1013 7 11.265408 0 0
7:55 am 07:55 Sunny 63 17 61 16 94 94 NNE 6 9 29.94 1014 7 11.265408 0 0
8:15 am 08:15 Sunny 64 18 61 16 88 88 ENE 5 7 29.94 1014 10 16.09344 0 0
8:35 am 08:35 Sunny 64 18 63 17 94 94 ENE 5 7 29.94 1014 10 16.09344 0 0
8:55 am 08:55 Sunny 68 20 63 17 83 83 E 5 7 29.91 1013 10 16.09344 0 0
9:15 am 09:15 Sunny 70 21 64 18 83 83 ESE 7 11 29.91 1013 10 16.09344 0 0
9:35 am 09:35 Sunny 73 23 64 18 74 74 ESE 5 7 29.91 1013 10 16.09344 0 0
9:55 am 09:55 Sunny 75 24 66 19 74 74 Calm 29.88 1012 10 16.09344 0 0
10:15 am 10:15 Sunny 75 24 66 19 74 74 N 14 22 29.91 1013 10 16.09344 0 0
10:35 am 10:35 Partly Cloudy 72 22 64 18 78 78 N 17 28 29.94 1014 10 16.09344 0 0
10:55 am 10:55 Partly Cloudy 70 21 63 17 78 78 N 14 22 29.94 1014 10 16.09344 0 0
11:15 am 11:15 Partly Cloudy 72 22 64 18 78 78 NNE 13 20 29.94 1014 10 16.09344 0 0
11:35 am 11:35 Sunny 73 23 64 18 74 74 NE 10 17 29.91 1013 10 16.09344 0 0
11:55 am 11:55 Sunny 75 24 64 18 69 69 ENE 12 19 29.88 1012 10 16.09344 0 0
12:15 pm 12:15 Sunny 75 24 64 18 69 69 E 13 20 29.88 1012 10 16.09344 0 0
12:35 pm 12:35 Sunny 77 25 66 19 69 69 E 13 20 29.88 1012 10 16.09344 0 0
12:55 pm 12:55 Sunny 79 26 66 19 65 65 E 10 17 29.88 1012 10 16.09344 0 0
1:15 pm 13:15 Sunny 79 26 66 19 65 65 E 7 11 29.85 1011 10 16.09344 0 0
1:35 pm 13:35 Sunny 81 27 64 18 58 58 ESE 8 13 29.83 1010 10 16.09344 0 0
1:55 pm 13:55 Sunny 82 28 64 18 55 55 SE 5 7 29.83 1010 10 16.09344 0 0
2:15 pm 14:15 Sunny 82 28 64 18 55 55 E 3 6 29.83 1010 10 16.09344 0 0
2:35 pm 14:35 Sunny 84 29 64 18 51 51 SE 5 7 29.8 1009 10 16.09344 0 0
2:55 pm 14:55 Sunny 86 30 64 18 49 49 ESE 7 11 29.77 1008 10 16.09344 0 0
3:15 pm 15:15 Sunny 86 30 66 19 52 52 SE 10 17 29.77 1008 10 16.09344 0 0
3:35 pm 15:35 Sunny 88 31 66 19 49 49 ESE 3 6 29.77 1008 10 16.09344 0 0
3:55 pm 15:55 Sunny 86 30 68 20 55 55 E 6 9 29.77 1008 10 16.09344 0 0
4:15 pm 16:15 Sunny 88 31 68 20 52 52 ESE 3 6 29.77 1008 10 16.09344 0 0
4:35 pm 16:35 Sunny 88 31 68 20 52 52 NNE 6 9 29.77 1008 10 16.09344 0 0
4:55 pm 16:55 Sunny 88 31 66 19 49 49 Calm 29.77 1008 10 16.09344 0 0
5:15 pm 17:15 Sunny 88 31 66 19 49 49 NNE 3 6 29.74 1007 10 16.09344 0 0
5:35 pm 17:35 Sunny 88 31 68 20 52 52 N 10 17 29.74 1007 10 16.09344 0 0
5:55 pm 17:55 Sunny 86 30 68 20 55 55 NNE 15 24 29.74 1007 10 16.09344 0 0
6:15 pm 18:15 Sunny 86 30 70 21 59 59 NNE 15 24 29.74 1007 10 16.09344 0 0
6:35 pm 18:35 Sunny 86 30 68 20 55 55 NNE 15 24 29.74 1007 10 16.09344 0 0
6:55 pm 18:55 Sunny 84 29 68 20 58 58 N 12 19 29.77 1008 10 16.09344 0 0
7:15 pm 19:15 Sunny 84 29 70 21 62 62 NNE 14 22 29.77 1008 10 16.09344 0 0
7:35 pm 19:35 Sunny 84 29 68 20 58 58 NNE 10 17 29.77 1008 10 16.09344 0 0
7:55 pm 19:55 Sunny 82 28 68 20 62 62 NNE 10 17 29.8 1009 10 16.09344 0 0
8:15 pm 20:15 Sunny 81 27 70 21 70 70 NNE 9 15 29.8 1009 10 16.09344 0 0
8:35 pm 20:35 Sunny 79 26 68 20 70 70 NNE 12 19 29.83 1010 10 16.09344 0 0
8:55 pm 20:55 Sunny 79 26 68 20 70 70 NNE 10 17 29.85 1011 10 16.09344 0 0
9:15 pm 21:15 Clear 77 25 68 20 74 74 NNE 9 15 29.85 1011 10 16.09344 0 0
9:35 pm 21:35 Clear 75 24 68 20 78 78 NNE 6 9 29.85 1011 10 16.09344 0 0
9:55 pm 21:55 Clear 73 23 68 20 83 83 NNE 6 9 29.85 1011 10 16.09344 0 0
10:15 pm 22:15 Clear 73 23 68 20 83 83 NNE 7 11 29.85 1011 10 16.09344 0 0
10:35 pm 22:35 Clear 72 22 68 20 88 88 NNE 7 11 29.88 1012 10 16.09344 0 0
10:55 pm 22:55 Clear 72 22 68 20 88 88 NNE 5 7 29.88 1012 10 16.09344 0 0
11:15 pm 23:15 Clear 70 21 66 19 88 88 N 3 6 29.88 1012 7 11.265408 0 0
11:35 pm 23:35 Clear 70 21 66 19 88 88 NNE 3 6 29.88 1012 10 16.09344 0 0
11:55 pm 23:55 Clear 70 21 66 19 88 88 N 5 7 29.88 1012 10 16.09344 0 0

Powered by AerisWeather